Nagpur Sonegaon, India

11:57 PM IST on November 21, 2017 (GMT +0530)
Nagpur

Weather History for VANP - December, 2012

Change the Weather History Date:

Friday, December 28, 2012

  Actual Average Record
Temperature  
Mean Temperature 64 °F -  
Max Temperature 84 °F 84 °F - ()
Min Temperature 45 °F 55 °F - ()
Growing Degree Days 14 (Base 50)    
Moisture  
Dew Point 44 °F    
Average Humidity 57    
Maximum Humidity 100    
Minimum Humidity 25    
Precipitation  
Precipitation 0.00 in 0.02 in - ()
Sea Level Pressure  
Sea Level Pressure 29.88 in    
Wind  
Wind Speed 1 mph ()    
Max Wind Speed 5 mph    
Max Gust Speed -    
Visibility 2.0 miles    
Events      
T = Trace of Precipitation, MM = Missing Value Source: Averaged Metar Reports

Daily Weather History Graph

Daily Weather History Graph

Search for Another Location

Airport or City:

Trip Planner

Search our weather history database for the weather conditions in past years. The results will help you decide how hot, cold, wet, or windy it might be!

Date:

Astronomy

Dec. 28, 2012 Rise Set
Actual Time 6:49 AM IST 5:41 PM IST
Civil Twilight 6:25 AM IST 6:05 PM IST
Nautical Twilight 5:57 AM IST 6:33 PM IST
Astronomical Twilight 5:30 AM IST 7:00 PM IST
Moon 5:46 PM IST (12/28) 6:28 AM IST (12/28)
Length of Visible Light 11h 40m
Length of Day
10h 51m
Full, 100% of the Moon is Illuminated
Dec 28
Full
Dec 28
Full
Jan 5
Last Quarter
Jan 12
New
Jan 19
First Quarter

Hourly Weather History & Observations

Time (IST) Temp. Dew Point Humidity Pressure Visibility Wind Dir Wind Speed Gust Speed Precip Events Conditions
12:10 AM 57.2 °F 41.0 °F 55% 29.92 in 1.9 mi Calm Calm - N/A   Haze
1:10 AM 50.0 °F 39.2 °F 66% 29.92 in 1.9 mi Calm Calm - N/A   Haze
2:10 AM 50.0 °F 39.2 °F 66% 29.89 in 1.9 mi Calm Calm - N/A   Haze
3:10 AM 50.0 °F 41.0 °F 71% 29.89 in 1.2 mi NW 2.3 mph - N/A   Mist
4:10 AM 32.0 °F 32.0 °F 100% 29.89 in - North - - N/A   Unknown
5:10 AM 53.6 °F 41.0 °F 62% 29.89 in - North - - N/A   Haze
5:30 AM 48 °F 46 °F 89% 29.91 in 1 mi Calm Calm - -   Haze
6:10 AM 53.6 °F 39.2 °F 58% 29.89 in - North - - N/A   Haze
7:10 AM 50.0 °F 37.4 °F 62% 29.89 in 1.2 mi Calm Calm - N/A   Haze
8:10 AM 59.0 °F 42.8 °F 55% 29.92 in 1.6 mi Calm Calm - N/A   Haze
8:30 AM 58 °F 49 °F 65% 29.95 in 1 mi Calm Calm - -   Haze
10:10 AM 66.2 °F 44.6 °F 46% 29.95 in 1.6 mi East 3.5 mph - N/A   Haze
11:30 AM 75 °F 58 °F 44% 29.91 in 2 mi SE 4.6 mph - -   Haze
1:10 PM 80.6 °F 44.6 °F 28% 29.86 in 3.7 mi Calm Calm - N/A   Unknown
2:10 PM 82.4 °F 42.8 °F 25% 29.83 in 3.7 mi Calm Calm - N/A   Unknown
3:10 PM 80.6 °F 42.8 °F 26% 29.83 in 3.7 mi NW 2.3 mph - N/A   Unknown
4:10 PM 80.6 °F 44.6 °F 28% 29.80 in 3.7 mi SE 2.3 mph - N/A   Unknown
5:10 PM 78.8 °F 50.0 °F 36% 29.83 in 3.1 mi ESE 2.3 mph - N/A   Haze
5:30 PM 70 °F 58 °F 57% 29.80 in 2 mi ESE 2.3 mph - -   Haze
8:10 PM 62.6 °F 44.6 °F 52% 29.86 in 1.9 mi Calm Calm - N/A   Haze
8:30 PM 56 °F 52 °F 81% 29.89 in 1 mi Calm Calm - -   Haze
9:10 PM 59.0 °F 44.6 °F 59% 29.89 in 1.9 mi Calm Calm - N/A   Haze
10:10 PM 59.0 °F 42.8 °F 55% 29.89 in 1.9 mi Calm Calm - N/A   Haze
11:10 PM 59.0 °F 41.0 °F 51% 29.89 in 1.9 mi Calm Calm - N/A   Haze
11:30 PM 52 °F 47 °F 79% 29.92 in 1 mi Calm Calm - -   Haze